FW6809 Weather Reports


time (UTC)temp
C
wind
direction
speed
KPH
gust
KPH
rain 1hr
cm
rain 24hr
cm
rain mn
cm
humidity
%
barometer
mb
20260906113054 20 0 0.0 0.0 0.00 0.03 0.00 100 1015.2
20260906111600 20 0 0.0 0.0 0.00 0.03 0.00 100 1015.1
20260906110056 19 0 0.0 0.0 0.00 0.03 0.00 100 1015.3
20260906104557 19 0 0.0 0.0 0.00 0.03 0.00 100 1015.2
20260906103055 19 0 0.0 0.0 0.00 0.03 0.00 100 1015.2
20260906101554 19 0 0.0 0.0 0.00 0.03 0.00 100 1015.2
20260906094601 19 0 0.0 0.0 0.00 0.03 0.00 100 1015.4
20260906093057 19 0 0.0 0.0 0.00 0.03 0.00 100 1015.2
20260906091551 18 0 0.0 0.0 0.00 0.03 0.00 100 1015.2
20260906090100 18 0 0.0 0.0 0.00 0.03 0.00 100 1015.3
20260906084600 18 0 0.0 0.0 0.00 0.03 0.00 100 1015.2
20260906083054 19 0 0.0 0.0 0.00 0.03 0.00 100 1015.1
20260906081554 18 0 0.0 0.0 0.00 0.03 0.00 100 1015.0
20260906080059 19 0 0.0 0.0 0.00 0.03 0.00 100 1014.9
20260906074556 19 0 0.0 0.0 0.00 0.03 0.00 100 1014.9
20260906073057 19 0 0.0 0.0 0.00 0.03 0.00 99 1014.9
20260906071552 19 0 0.0 0.0 0.00 0.03 0.00 99 1015.0
20260906070056 19 0 0.0 0.0 0.00 0.03 0.00 99 1015.2
20260906064601 20 0 0.0 0.0 0.00 0.03 0.00 99 1015.3
20260906063057 20 0 0.0 0.0 0.00 0.03 0.00 99 1015.0
20260906061603 20 0 0.0 0.0 0.00 0.03 0.00 99 1015.0
20260906060107 20 0 0.0 0.0 0.00 0.03 0.00 99 1015.4
20260906054604 20 0 0.0 1.6 0.00 0.03 0.00 99 1015.4
20260906053056 20 0 0.0 0.0 0.00 0.03 0.00 99 1015.6
20260906051554 20 0 0.0 0.0 0.00 0.03 0.00 99 1015.9
20260906050107 20 0 0.0 0.0 0.00 0.03 0.00 99 1015.7
20260906044601 20 0 0.0 0.0 0.00 0.03 0.00 99 1016.1
20260906043055 20 0 0.0 0.0 0.00 0.03 0.00 99 1016.0
20260906041553 20 0 0.0 0.0 0.00 0.03 0.00 99 1016.3
20260906040109 21 0 0.0 0.0 0.00 0.03 0.00 99 1016.1
20260906034557 21 0 0.0 0.0 0.00 0.03 0.03 99 1016.2
20260906033101 21 0 0.0 0.0 0.00 0.03 0.03 99 1016.1
20260906031611 21 0 0.0 0.0 0.00 0.03 0.03 99 1016.1
20260906030057 21 0 0.0 0.0 0.00 0.03 0.03 99 1016.1
20260906024605 21 0 0.0 0.0 0.00 0.03 0.03 98 1016.1
20260906023101 22 0 0.0 0.0 0.00 0.03 0.03 98 1016.1
20260906021604 22 0 0.0 0.0 0.00 0.03 0.03 98 1016.2
20260906020104 22 0 0.0 0.0 0.00 0.03 0.03 98 1016.1
20260906014600 22 0 0.0 0.0 0.00 0.03 0.03 98 1015.8
20260906013104 22 0 0.0 0.0 0.00 0.03 0.03 97 1015.7
20260906011555 22 0 0.0 0.0 0.00 0.03 0.03 97 1015.0
20260906010056 22 0 0.0 0.0 0.00 0.03 0.03 97 1014.7
20260906004607 22 0 0.0 0.0 0.00 0.03 0.03 96 1014.6
20260906003058 23 0 0.0 0.0 0.00 0.03 0.03 96 1014.6
20260906001555 23 0 0.0 0.0 0.00 0.03 0.03 96 1014.2
20260906000106 23 0 0.0 0.0 0.00 0.03 0.03 95 1014.3
20260905234607 24 0 0.0 0.0 0.00 0.03 0.03 94 1014.3
20260905233057 25 0 0.0 0.0 0.00 0.03 0.03 92 1014.3
20260905231602 24 0 0.0 0.0 0.00 0.03 0.03 90 1014.9
20260905230059 25 0 0.0 0.0 0.00 0.03 0.03 89 1014.7
20260905224555 25 0 0.0 1.6 0.00 0.03 0.03 85 1014.9
20260905223055 25 0 0.0 0.0 0.03 0.03 0.03 92 1014.5
20260905221550 24 0 0.0 0.0 0.03 0.03 0.03 93 1014.5
20260905220057 23 0 0.0 0.0 0.03 0.03 0.03 94 1014.7
20260905214554 23 0 0.0 0.0 0.03 0.03 0.03 91 1014.8
20260905213105 25 0 0.0 17.7 0.00 0.00 0.00 86 1014.9
20260905211608 30 146 1.6 22.5 0.00 0.00 0.00 70 1014.7
20260905204556 33 0 1.6 8.0 0.00 0.00 0.00 55 1014.3
20260905203113 34 0 0.0 9.7 0.00 0.00 0.00 56 1014.2
20260905201602 34 0 0.0 6.4 0.00 0.00 0.00 55 1014.3
20260905200117 34 0 0.0 4.8 0.00 0.00 0.00 52 1014.5
20260905194553 34 129 0.0 8.0 0.00 0.00 0.00 53 1014.5
20260905193101 34 0 0.0 1.6 0.00 0.00 0.00 56 1014.7
20260905191555 34 0 0.0 6.4 0.00 0.00 0.00 56 1015.1
20260905190054 34 0 0.0 0.0 0.00 0.00 0.00 58 1015.1
20260905184609 34 0 0.0 4.8 0.00 0.00 0.00 52 1015.2
20260905183058 34 178 1.6 8.0 0.00 0.00 0.00 50 1015.2
20260905181555 33 0 0.0 6.4 0.00 0.00 0.00 61 1015.6
20260905180105 33 0 0.0 4.8 0.00 0.00 0.00 63 1015.8
20260905174557 33 0 0.0 6.4 0.00 0.00 0.00 63 1016.0
20260905173102 33 0 0.0 1.6 0.00 0.00 0.00 65 1016.0
20260905171553 33 144 1.6 8.0 0.00 0.00 0.00 62 1016.3
20260905164605 33 0 0.0 3.2 0.00 0.00 0.00 67 1016.3
20260905163051 32 0 0.0 3.2 0.00 0.00 0.00 69 1016.5
20260905161557 32 0 0.0 3.2 0.00 0.00 0.00 68 1016.8
20260905160056 32 136 0.0 1.6 0.00 0.00 0.00 68 1017.0
20260905154557 32 0 0.0 6.4 0.00 0.00 0.00 72 1017.3
20260905153052 31 0 0.0 1.6 0.00 0.00 0.00 71 1017.2
20260905151612 31 0 0.0 1.6 0.00 0.00 0.00 73 1017.4
20260905150055 31 0 0.0 0.0 0.00 0.00 0.00 74 1017.4
20260905144559 31 0 0.0 0.0 0.00 0.00 0.00 73 1017.5
20260905143053 30 0 0.0 0.0 0.00 0.00 0.00 77 1017.4
20260905141554 29 0 0.0 0.0 0.00 0.00 0.00 78 1017.5
20260905140056 28 0 0.0 0.0 0.00 0.00 0.00 83 1017.6
20260905134559 28 0 0.0 0.0 0.00 0.00 0.00 85 1017.7
20260905133058 27 0 0.0 0.0 0.00 0.00 0.00 83 1017.8
20260905131554 27 0 0.0 0.0 0.00 0.00 0.00 86 1018.0
20260905130051 26 0 0.0 0.0 0.00 0.00 0.00 88 1018.0
20260905124558 24 0 0.0 0.0 0.00 0.00 0.00 93 1017.9
20260905123055 22 0 0.0 0.0 0.00 0.00 0.00 98 1017.9
20260905121553 21 0 0.0 0.0 0.00 0.00 0.00 100 1017.8
20260905120105 20 0 0.0 0.0 0.00 0.00 0.00 100 1017.6
20260905114603 20 0 0.0 0.0 0.00 0.00 0.00 100 1017.6